Terminal Aerodrome Forecast
Issued by NWS Buffalo, NY

Home | Current Version | Previous Version | Text Only | Print | Product List | Glossary On
Versions: 1 2 3 4 5 6 7 8 9 10 11 12 13 14 15 16 17 18 19 20 21 22 23
000
FTUS41 KBUF 281700
TAFART
TAF
KART 281726Z 2818/2918 27011G19KT P6SM OVC025
     FM282100 26010KT P6SM BKN040
     FM290300 25007KT P6SM BKN080
     FM290900 27011KT P6SM BKN130=

USA.gov is the U.S. government's official web portal to all federal, state and local government web resources and services.